Home > Weather > Tangier > Past weeks

Flag for Morocco Weather for the Past 2 Weeks in Tangier, Morocco

Now
63 °F

Broken clouds.


Feels Like: 63 °F
Forecast: N/A
Wind: 10 mph from Northwest

Location: Tanger Aerodrome

Current Time: Feb 7, 2016 at 3:40:53 PM

Latest Report: Feb 7, 2016 at 3:00 PM


Visibility: 5 mi

Pressure: 30.33 "Hg

Humidity: 64%

Dew point: 50 °F

Location of TangierLocation

Historic Weather in Tangier — Graph

°F

Tangier Temperature Yesterday

Maximum temperature yesterday: 66 °F (at 11:00 AM)
Minimum temperature yesterday: 50 °F (at 5:30 AM)
Average temperature yesterday: 60 °F

High & Low Weather Summary for the Past Weeks

 TemperatureHumidityPressure
High70 °F (Jan 23, 2:00 PM)94% (Jan 25, 7:30 PM)30.60 "Hg (Jan 25, 7:30 PM)
Low43 °F (Feb 1, 7:30 AM)40% (Feb 1, 12:00 PM)30.21 "Hg (Feb 5, 4:00 AM)
Average57 °F77%30.38 "Hg
* Reported Jan 23 2:00 PM — Feb 7 2:30 PM, Tangier, Weather by CustomWeather, © 2016

Note: Actual official high and low records may vary slightly from our data, if they occured in-between our weather recording intervals... More about our weather records

Advertising

Tangier Weather History for the Previous 24 Hours

 ConditionsComfort  
Time TempWeatherWind HumidityBarometerVisibility
2:30 PM
Sun, Feb 7
63 °FBroken clouds.12 mph64%30.33 "Hg5 mi
2:00 PM63 °FBroken clouds.13 mph64%30.33 "Hg5 mi
1:30 PM63 °FBroken clouds.14 mph68%30.33 "Hg5 mi
1:00 PM63 °FBroken clouds.12 mph68%30.33 "Hg5 mi
12:30 PM61 °FBroken clouds.12 mph72%30.36 "Hg4 mi
12:00 PM59 °FBroken clouds.13 mph77%30.36 "Hg4 mi
11:30 AM61 °FBroken clouds.14 mph83%30.36 "Hg5 mi
11:00 AM61 °FBroken clouds.13 mph88%30.33 "Hg5 mi
10:30 AM59 °FBroken clouds.12 mph88%30.33 "Hg4 mi
10:00 AM59 °FLight rain. Broken clouds.16 mph88%30.33 "Hg3 mi
9:30 AM59 °FBroken clouds.16 mph94%30.30 "Hg4 mi
9:00 AM59 °FLight rain. Fog.20 mph94%30.30 "Hg2 mi
8:30 AM59 °FRain. Fog.22 mph88%30.30 "Hg1 mi
8:00 AM63 °FPartly sunny.20 mph83%30.27 "Hg3 mi
7:30 AM63 °FPartly sunny.21 mph77%30.27 "Hg3 mi
7:00 AM63 °FPartly sunny.21 mph77%30.27 "Hg3 mi
6:30 AM63 °FPartly sunny.20 mph77%30.24 "Hg3 mi
5:30 AM63 °FPassing clouds.20 mph77%30.24 "Hg3 mi
5:00 AM63 °FPassing clouds.21 mph77%30.21 "Hg3 mi
4:30 AM63 °FPassing clouds.20 mph77%30.21 "Hg3 mi
4:00 AM61 °FPassing clouds.18 mph83%30.24 "Hg3 mi
3:30 AM61 °FPassing clouds.20 mph83%30.21 "Hg3 mi
2:30 AM61 °FPassing clouds.17 mph77%30.21 "Hg3 mi
2:00 AM61 °FPassing clouds.18 mph77%30.24 "Hg3 mi
1:00 AM61 °FPassing clouds.15 mph83%30.24 "Hg3 mi
12:30 AM61 °FPassing clouds.14 mph88%30.24 "Hg3 mi
12:00 AM61 °FPassing clouds.15 mph83%30.24 "Hg3 mi
11:00 PM
Sat, Feb 6
63 °FPassing clouds.13 mph83%30.24 "Hg3 mi
10:30 PM63 °FPassing clouds.15 mph83%30.24 "Hg3 mi
10:00 PM63 °FPassing clouds.14 mph83%30.24 "Hg3 mi
9:00 PM61 °FPassing clouds.12 mph83%30.24 "Hg4 mi
8:30 PM61 °FPassing clouds.12 mph83%30.21 "Hg4 mi
8:00 PM63 °FPassing clouds.12 mph77%30.24 "Hg4 mi
7:30 PM63 °FPassing clouds.10 mph77%30.24 "Hg4 mi
7:00 PM61 °FPassing clouds.10 mph83%30.21 "Hg5 mi
6:30 PM61 °FPassing clouds.9 mph83%30.21 "Hg5 mi
6:00 PM61 °FPassing clouds.10 mph83%30.21 "Hg5 mi
5:30 PM63 °FPassing clouds.12 mph83%30.21 "Hg5 mi
5:00 PM64 °FPassing clouds.14 mph78%30.21 "Hg5 mi
4:30 PM64 °FBroken clouds.14 mph78%30.21 "Hg5 mi
4:00 PM64 °FBroken clouds.14 mph78%30.21 "Hg5 mi
3:30 PM66 °FScattered clouds.14 mph73%30.21 "Hg5 mi
3:00 PM66 °FScattered clouds.13 mph73%30.21 "Hg5 mi
Weather by CustomWeather, © 2016

See weather overviewHow to use our weather pages